Temp
7 7 7 6 6 6 6 5 5 5 5 5 5 5 5 5 5 4 4 4 4 4 4 4 3 3 3 3 3 3 3 2 1 1 0 -0 -0 0 0 1 2 2 2
7 7 6 6 6 5 5 4 4 4 4 4 5 5 5 5 5 4 4 4 4 4 3 3 3 3 3 3 3 2 2 1 1 0 -0 -0 -0 -1 -0 0 0 0 0
6 6 6 5 5 4 4 4 4 4 4 4 5 5 5 5 5 5 4 4 3 3 3 3 3 3 2 2 2 2 1 1 -1 -1 -1 -1 -2 -2 -1 0 0 1 0
6 6 5 5 5 4 4 4 5 4 4 4 4 4 5 5 5 4 3 3 3 2 3 3 3 2 2 2 2 2 1 0 -1 -2 -2 -1 -1 -2 -1 -1 -0 -0 -1
5 5 5 5 5 5 5 5 5 4 4 4 4 4 4 4 4 3 3 3 3 3 2 2 2 2 1 1 0 0 0 -0 -1 -1 -2 -2 -2 -2 -2 -1 -1 -2 -1
5 5 5 5 5 5 5 5 5 5 4 4 4 3 3 3 3 3 3 3 2 2 2 2 1 1 0 0 0 0 0 -0 -0 -1 -1 -1 -1 -2 -2 -2 -2 -1 -2
5 5 5 5 5 5 4 4 4 4 4 3 3 3 3 3 3 3 2 2 2 2 1 1 0 0 -0 -0 -0 -0 -1 -1 -1 -1 -1 -1 -2 -2 -2 -2 -2 -1 -1
5 5 5 5 4 4 5 4 4 4 3 3 3 3 3 2 2 2 2 2 1 1 0 -0 -0 -0 -1 -1 -1 -1 -1 -1 -1 -2 -2 -2 -2 -2 -2 -2 -2 -2 -2
4 4 4 4 4 4 4 4 3 3 3 3 2 2 2 2 2 1 1 1 0 0 -0 -1 -1 -1 -1 -1 -1 -1 -1 -2 -2 -2 -2 -3 -3 -3 -3 -3 -3 -3 -3
4 4 4 4 4 4 4 3 3 3 2 2 2 2 1 1 1 0 0 -0 -0 -0 -1 -1 -1 -1 -1 -1 -1 -1 -2 -2 -2 -2 -3 -3 -3 -4 -4 -4 -4 -4 -4
3 3 3 3 3 3 3 3 2 2 2 1 1 1 1 1 0 -0 -0 -0 -0 -1 -1 -1 -1 -2 -2 -2 -2 -2 -2 -2 -3 -3 -3 -4 -4 -4 -4 -5 -5 -5 -5
3 3 3 3 3 3 2 2 2 1 1 1 1 1 0 0 0 -0 -0 -1 -1 -1 -1 -1 -2 -2 -2 -2 -2 -2 -3 -3 -3 -3 -4 -4 -4 -5 -5 -5 -5 -5 -6
3 4 4 4 4 3 3 2 2 1 1 1 0 0 -0 -0 -0 -1 -1 -1 -1 -2 -2 -2 -2 -2 -3 -3 -3 -3 -3 -3 -4 -4 -4 -5 -5 -5 -6 -6 -6 -6 -6
3 3 3 4 3 3 3 2 2 1 1 1 0 -0 -1 -1 -1 -1 -1 -2 -2 -2 -2 -2 -2 -3 -3 -3 -3 -3 -4 -4 -4 -4 -5 -5 -5 -6 -6 -6 -7 -7 -7
3 4 4 3 3 3 2 2 2 1 1 1 0 -1 -2 -2 -2 -2 -2 -2 -3 -3 -3 -3 -3 -3 -4 -4 -4 -4 -4 -4 -5 -5 -5 -6 -6 -6 -7 -7 -7 -7 -7
3 3 3 3 2 2 2 2 1 1 0 0 -0 -1 -2 -2 -2 -2 -3 -3 -3 -3 -3 -3 -4 -4 -4 -4 -4 -4 -5 -5 -5 -5 -6 -6 -7 -7 -7 -7 -7 -7 -7
3 2 2 2 1 1 1 1 1 1 1 1 -0 -1 -1 -2 -2 -3 -3 -4 -4 -4 -4 -4 -4 -5 -5 -5 -5 -5 -5 -5 -6 -6 -6 -7 -7 -7 -8 -8 -8 -8 -8
2 2 1 1 1 1 1 1 1 0 0 0 -0 -1 -1 -2 -3 -3 -4 -4 -4 -5 -5 -5 -5 -5 -5 -5 -5 -6 -6 -6 -6 -6 -7 -7 -7 -8 -8 -8 -8 -8 -8
2 1 1 0 0 0 0 1 1 1 1 -0 -1 -2 -2 -3 -3 -4 -5 -5 -5 -5 -5 -5 -5 -5 -6 -6 -6 -6 -6 -6 -7 -7 -7 -8 -8 -9 -8 -8 -8 -8 -8
2 2 1 1 0 0 0 0 0 0 0 -0 -1 -1 -2 -3 -3 -4 -5 -5 -5 -6 -5 -5 -6 -6 -6 -6 -7 -7 -7 -7 -7 -7 -8 -8 -9 -9 -9 -9 -8 -8 -8
2 1 1 0 -0 -0 -0 -0 -0 -1 -1 -1 -1 -2 -2 -3 -3 -4 -5 -5 -6 -6 -6 -6 -6 -6 -7 -7 -7 -8 -8 -8 -8 -8 -8 -9 -9 -9 -9 -9 -9 -9 -9
1 1 1 0 -1 -1 -1 -1 -1 -1 -1 -2 -2 -2 -3 -4 -4 -4 -5 -5 -6 -6 -6 -7 -7 -7 -7 -8 -8 -8 -9 -9 -8 -8 -9 -9 -10 -10 -9 -10 -10 -10 -10
1 0 -1 -1 -1 -1 -1 -1 -1 -1 -1 -2 -2 -3 -4 -4 -4 -5 -6 -6 -6 -7 -7 -7 -7 -7 -8 -8 -8 -9 -9 -9 -9 -9 -9 -10 -10 -10 -10 -10 -11 -10 -11
-1 -1 -1 -1 -1 -1 -1 -1 -1 -1 -2 -2 -2 -3 -4 -5 -5 -5 -6 -6 -6 -7 -7 -7 -8 -8 -8 -8 -8 -9 -10 -9 -9 -9 -9 -10 -10 -10 -10 -10 -11 -11 -12
-1 -1 -1 -1 -1 -1 -1 -1 -2 -2 -2 -3 -3 -4 -4 -5 -5 -6 -6 -6 -6 -7 -7 -8 -8 -8 -8 -9 -9 -10 -10 -10 -10 -10 -10 -10 -10 -10 -11 -11 -11 -11 -12
-2 -2 -2 -2 -2 -2 -2 -2 -2 -3 -3 -4 -4 -4 -5 -5 -6 -6 -6 -7 -7 -7 -8 -8 -8 -9 -10 -10 -10 -10 -11 -10 -10 -10 -10 -10 -10 -10 -11 -11 -11 -12 -13
Height
3140 3139 3138 3137 3135 3134 3132 3129 3127 3124 3123 3121 3120 3119 3118 3116 3113 3112 3109 3106 3104 3103 3101 3099 3095 3091 3089 3085 3082 3079 3076 3072 3070 3069 3069 3068 3069 3071 3073 3073 3073 3073 3074
3136 3135 3134 3132 3131 3129 3127 3124 3121 3119 3118 3117 3116 3115 3114 3112 3110 3107 3105 3103 3101 3099 3097 3094 3090 3086 3083 3080 3078 3075 3072 3068 3066 3064 3063 3064 3065 3065 3065 3066 3065 3064 3064
3131 3130 3129 3128 3126 3124 3121 3119 3117 3115 3114 3114 3113 3112 3110 3108 3106 3104 3102 3100 3097 3095 3092 3089 3085 3082 3079 3077 3074 3071 3068 3065 3062 3060 3060 3059 3059 3058 3058 3058 3058 3057 3056
3126 3126 3125 3124 3122 3120 3118 3115 3114 3112 3111 3110 3109 3108 3107 3105 3103 3101 3098 3096 3093 3090 3087 3085 3082 3079 3076 3073 3071 3068 3065 3062 3060 3058 3056 3055 3054 3052 3052 3052 3052 3050 3048
3123 3122 3122 3121 3119 3117 3115 3113 3110 3109 3108 3107 3106 3105 3103 3101 3100 3098 3096 3093 3090 3087 3084 3082 3079 3076 3073 3071 3068 3066 3063 3060 3057 3054 3053 3051 3048 3046 3044 3045 3045 3043 3043
3119 3119 3118 3117 3116 3114 3112 3110 3108 3106 3104 3103 3103 3101 3099 3098 3097 3095 3093 3090 3086 3083 3080 3078 3076 3072 3070 3068 3066 3063 3061 3058 3055 3052 3049 3047 3045 3042 3039 3037 3036 3037 3037
3116 3116 3115 3114 3112 3111 3109 3107 3105 3104 3103 3102 3100 3099 3097 3095 3094 3092 3089 3086 3083 3080 3078 3075 3072 3070 3067 3065 3063 3060 3057 3055 3051 3048 3045 3041 3038 3035 3033 3030 3028 3026 3028
3113 3112 3111 3110 3110 3108 3105 3104 3102 3101 3099 3097 3095 3094 3093 3091 3089 3087 3085 3082 3080 3077 3074 3071 3069 3066 3064 3062 3059 3055 3052 3049 3046 3043 3040 3037 3033 3028 3024 3022 3020 3018 3018
3111 3110 3109 3107 3105 3103 3102 3100 3099 3097 3095 3093 3091 3090 3088 3086 3084 3082 3079 3077 3074 3072 3070 3068 3067 3064 3062 3059 3055 3051 3047 3043 3040 3036 3032 3029 3025 3022 3019 3015 3011 3007 3005
3108 3106 3105 3103 3101 3099 3098 3096 3095 3093 3091 3089 3087 3085 3083 3081 3079 3077 3075 3074 3072 3069 3067 3063 3061 3058 3055 3053 3050 3047 3043 3039 3035 3031 3027 3023 3018 3014 3011 3008 3005 3002 2999
3104 3102 3101 3099 3097 3095 3094 3092 3091 3089 3087 3085 3083 3081 3080 3078 3076 3074 3072 3069 3066 3063 3060 3057 3055 3052 3050 3048 3045 3041 3037 3033 3029 3025 3021 3017 3013 3009 3005 3002 2998 2994 2991
3099 3098 3096 3094 3092 3091 3089 3087 3085 3084 3081 3079 3078 3076 3074 3072 3070 3069 3066 3064 3062 3059 3056 3053 3050 3047 3044 3041 3038 3035 3031 3027 3023 3018 3014 3009 3005 3001 2998 2995 2991 2987 2983
3094 3091 3090 3088 3086 3084 3083 3081 3079 3078 3076 3074 3073 3071 3069 3068 3065 3064 3061 3059 3056 3053 3050 3047 3044 3041 3039 3036 3033 3029 3024 3020 3015 3011 3007 3003 2999 2995 2991 2988 2985 2982 2978
3089 3087 3084 3082 3080 3078 3076 3075 3073 3071 3069 3067 3066 3064 3062 3060 3059 3057 3055 3053 3050 3048 3045 3042 3039 3036 3034 3031 3027 3023 3019 3014 3009 3005 3000 2996 2992 2988 2984 2980 2977 2975 2971
3084 3081 3079 3076 3074 3072 3070 3068 3066 3064 3062 3059 3057 3057 3054 3052 3051 3050 3047 3045 3043 3041 3038 3035 3033 3031 3028 3025 3021 3018 3014 3008 3003 2998 2993 2989 2985 2981 2977 2973 2970 2967 2964
3080 3077 3073 3071 3069 3066 3064 3061 3060 3057 3053 3051 3049 3048 3046 3044 3043 3041 3039 3037 3035 3033 3031 3029 3026 3023 3020 3016 3013 3009 3005 3000 2995 2990 2985 2980 2976 2972 2969 2966 2963 2960 2956
3073 3070 3066 3064 3062 3059 3057 3054 3052 3048 3045 3043 3041 3038 3037 3035 3034 3032 3030 3029 3027 3024 3022 3019 3017 3014 3011 3009 3005 3002 2997 2992 2987 2982 2977 2973 2968 2964 2961 2959 2955 2952 2949
3066 3062 3058 3056 3054 3052 3049 3046 3043 3039 3036 3033 3031 3030 3029 3027 3025 3024 3022 3020 3018 3016 3014 3011 3009 3006 3003 3000 2997 2993 2989 2985 2979 2974 2969 2964 2960 2956 2953 2951 2947 2944 2941
3059 3055 3052 3049 3047 3043 3040 3037 3034 3029 3026 3024 3023 3021 3020 3019 3017 3015 3014 3012 3010 3008 3005 3003 3000 2997 2995 2992 2988 2984 2980 2976 2971 2967 2961 2956 2952 2949 2946 2942 2938 2936 2933
3052 3048 3045 3042 3038 3034 3031 3028 3024 3021 3018 3015 3013 3011 3010 3008 3007 3006 3005 3003 3001 2999 2996 2993 2990 2988 2986 2982 2979 2975 2971 2968 2962 2958 2953 2947 2943 2941 2938 2933 2929 2925 2922
3043 3040 3037 3033 3028 3025 3021 3019 3015 3012 3010 3007 3005 3003 3001 3000 2998 2996 2995 2994 2993 2990 2987 2984 2981 2979 2976 2973 2970 2966 2962 2958 2954 2950 2945 2940 2936 2933 2930 2926 2921 2917 2912
3037 3032 3028 3025 3020 3015 3012 3010 3007 3004 3002 2999 2997 2995 2993 2991 2989 2987 2986 2985 2984 2981 2979 2976 2973 2970 2967 2964 2961 2956 2953 2949 2945 2941 2936 2931 2928 2925 2922 2917 2914 2909 2904
3028 3024 3020 3018 3014 3009 3005 3003 3001 2997 2994 2991 2988 2986 2984 2982 2981 2979 2977 2976 2974 2972 2970 2967 2965 2962 2958 2955 2951 2947 2944 2941 2936 2932 2927 2923 2920 2917 2913 2909 2906 2900 2894
3024 3020 3017 3013 3010 3005 3000 2995 2992 2989 2985 2982 2979 2977 2974 2973 2973 2971 2970 2967 2965 2963 2960 2958 2955 2953 2950 2946 2942 2939 2935 2932 2928 2923 2918 2915 2912 2909 2904 2900 2896 2891 2885
3021 3016 3012 3008 3004 3000 2995 2990 2986 2982 2978 2975 2972 2970 2968 2966 2964 2963 2962 2959 2956 2953 2951 2949 2946 2945 2943 2938 2934 2930 2926 2923 2919 2914 2910 2907 2904 2900 2896 2892 2888 2883 2877
3018 3014 3009 3005 3001 2997 2992 2988 2983 2978 2975 2972 2969 2965 2962 2960 2957 2955 2953 2951 2947 2943 2941 2939 2937 2935 2932 2928 2924 2921 2918 2915 2910 2906 2902 2899 2896 2892 2888 2885 2881 2876 2871
Wind_Speed
21 22 24 27 29 27 26 26 27 27 25 20 16 16 18 21 23 18 19 19 18 20 18 19 20 19 18 20 22 23 25 26 25 26 25 24 29 27 35 32 37 34 39
22 24 27 27 25 25 26 26 25 23 19 16 15 17 18 19 17 18 17 17 17 16 16 17 17 20 20 20 21 21 24 27 25 23 22 24 25 24 30 36 32 36 44
25 25 24 23 22 22 21 21 20 18 15 14 15 16 15 15 16 15 14 14 13 13 12 14 16 18 18 18 19 20 19 22 20 17 15 16 21 24 31 27 33 36 40
23 21 18 17 15 15 16 17 15 12 12 14 13 11 10 12 13 11 11 10 9 9 11 12 15 16 16 16 16 17 17 17 16 18 18 21 25 24 25 27 28 27 28
15 15 13 12 13 14 14 13 11 10 10 9 8 9 11 10 11 11 10 10 9 10 12 12 12 13 13 15 15 15 16 18 17 14 15 20 23 23 26 25 23 23 24
12 12 12 13 13 13 12 12 11 9 7 8 9 9 9 9 10 11 11 11 10 10 12 12 12 13 14 15 16 18 19 18 18 18 18 18 20 22 24 24 24 24 21
10 11 12 13 14 14 14 14 13 10 9 9 10 11 10 11 12 12 12 12 12 12 12 13 13 14 15 17 20 22 22 22 22 23 24 25 26 26 27 28 29 29 24
10 12 14 15 15 15 15 13 12 11 10 10 11 12 13 13 13 14 14 14 15 14 13 13 13 14 16 19 22 24 25 26 26 26 26 27 29 30 31 32 32 32 31
10 13 15 14 14 14 14 14 14 13 13 13 13 14 15 15 15 16 17 17 17 15 14 14 15 16 19 22 24 26 28 28 28 28 28 28 28 29 31 33 33 34 35
13 14 13 12 14 16 16 15 15 16 16 16 17 18 18 18 19 19 19 19 18 17 17 17 17 18 20 22 25 26 27 29 29 29 30 30 29 29 29 29 30 32 33
17 15 14 16 17 18 19 18 17 18 18 18 20 20 21 21 22 21 21 21 20 20 20 20 20 21 22 24 26 27 28 30 31 31 31 30 29 29 29 29 29 30 31
23 20 22 25 25 22 21 20 19 19 20 21 22 22 23 23 23 23 23 23 23 23 23 23 23 23 24 25 26 28 30 31 32 33 33 31 30 31 30 30 29 29 30
26 25 22 20 22 24 24 23 22 21 23 24 24 24 25 25 26 25 25 25 26 26 25 25 25 26 27 28 28 30 31 33 33 34 33 33 32 30 29 29 28 26 25
28 27 27 25 24 24 23 24 24 25 26 27 27 27 27 28 28 27 27 27 28 28 28 28 27 27 27 27 28 29 32 33 34 35 34 34 32 31 31 28 25 25 27
20 22 23 23 22 21 20 21 23 26 28 31 31 29 30 31 30 28 29 29 29 29 29 29 28 28 28 27 29 30 32 34 34 34 34 33 31 31 29 26 26 28 30
23 22 22 21 21 21 22 24 25 27 31 33 34 33 33 34 32 31 32 32 31 32 31 30 30 29 28 28 29 31 33 35 36 35 35 33 32 31 28 27 27 29 31
29 28 27 25 24 26 29 31 33 33 34 34 34 35 34 35 34 33 34 33 33 33 32 31 30 29 29 29 30 31 33 36 36 36 35 33 34 31 28 28 29 29 31
24 23 25 28 30 32 34 34 34 35 34 34 33 33 33 34 35 34 34 34 34 33 33 32 31 30 30 30 30 31 34 36 36 36 35 34 34 30 29 29 29 31 33
26 25 24 24 26 29 32 34 34 35 33 30 30 29 30 32 33 34 34 35 34 34 33 32 31 30 30 30 30 32 34 36 37 37 35 35 31 28 29 31 31 32 34
28 28 28 29 32 34 35 34 33 31 28 27 28 30 32 33 33 33 35 36 35 34 34 33 32 30 29 30 29 35 35 36 37 36 35 34 31 29 30 31 33 36 37
34 32 31 31 32 31 32 30 29 28 29 30 30 31 33 34 34 34 36 35 35 36 35 33 32 30 30 29 33 34 35 37 38 35 33 31 29 29 30 30 33 36 38
32 33 33 29 29 32 31 29 28 30 31 31 32 32 33 34 34 35 34 35 37 36 35 33 32 30 30 31 35 34 35 37 38 34 32 30 28 29 29 30 32 34 37
30 29 29 26 25 29 31 31 31 32 33 32 32 31 31 32 32 33 33 35 35 35 34 34 31 30 30 34 40 36 33 36 37 34 32 29 28 29 29 30 32 34 35
25 25 24 25 26 30 32 34 33 33 32 31 29 28 28 28 29 30 32 33 33 34 34 33 31 30 32 37 43 35 31 36 36 33 32 28 28 29 29 30 32 34 34
24 25 26 26 26 26 27 27 27 26 25 23 22 23 24 26 27 30 32 33 34 34 34 33 32 31 35 38 40 32 29 35 35 32 29 26 27 27 27 29 32 33 33
24 25 26 27 27 27 25 23 22 20 18 17 17 18 20 23 26 29 32 34 34 35 34 33 32 35 38 42 37 29 28 34 33 31 27 26 27 26 27 29 29 29 29
Wind_Direction
269 273 276 280 285 289 290 291 291 292 290 287 281 286 294 300 300 299 301 301 301 300 296 302 311 318 320 323 327 326 325 315 300 289 275 275 269 275 263 262 252 259 249
267 271 278 283 286 287 290 292 293 291 285 276 277 289 300 305 300 304 303 301 301 299 299 305 320 329 327 326 331 328 328 323 307 302 290 276 275 271 269 261 272 267 274
268 274 277 281 285 292 294 294 292 289 280 275 283 294 299 301 308 309 307 299 298 302 311 326 336 344 341 337 333 331 324 328 313 310 307 301 273 267 262 269 266 275 276
268 273 272 281 288 297 302 302 298 290 282 284 292 299 310 321 317 307 304 303 314 321 336 339 339 343 347 348 347 342 338 329 325 289 285 294 299 292 274 269 267 270 274
257 261 268 282 293 302 307 317 308 289 286 296 308 311 314 314 305 306 310 318 321 329 329 328 326 327 335 338 341 343 341 338 333 317 301 294 293 287 284 283 276 277 267
250 260 276 286 296 301 304 307 301 296 295 294 296 299 302 302 302 304 304 309 317 316 310 308 315 324 332 334 336 334 331 328 321 315 307 298 293 294 292 290 285 280 273
262 279 285 287 292 297 303 307 303 301 300 302 304 302 300 299 297 299 303 303 299 296 297 304 316 324 326 326 326 326 323 319 315 310 306 301 298 295 292 292 292 289 283
276 280 286 291 296 304 306 308 305 303 296 292 293 291 288 289 294 294 292 289 287 288 296 303 307 312 316 320 322 322 321 320 317 313 307 301 297 295 293 292 292 290 288
291 297 300 302 304 302 303 303 299 296 292 290 285 280 278 280 283 282 280 280 281 287 294 301 306 312 317 319 320 321 321 320 317 314 311 308 304 300 298 297 296 296 295
309 305 301 304 304 302 301 299 295 292 290 285 277 273 274 274 275 278 283 290 298 302 300 300 302 305 309 314 316 317 317 317 316 314 312 309 307 303 300 297 296 296 296
306 305 302 302 303 302 299 295 291 288 287 281 278 279 280 282 284 288 290 292 294 295 296 297 298 302 308 313 316 318 319 320 319 318 314 310 306 303 300 298 296 295 295
294 292 291 294 291 287 287 287 286 286 283 281 281 280 279 279 281 284 288 291 293 296 298 298 298 300 304 309 313 316 319 321 320 318 314 310 308 306 303 301 301 300 300
295 298 296 297 297 284 284 286 289 289 286 286 284 283 283 282 282 284 286 289 291 293 295 294 294 298 303 309 312 316 319 320 319 317 313 310 307 304 302 300 296 294 295
298 296 296 294 291 291 287 288 288 287 285 286 285 282 282 281 283 285 286 287 289 291 293 292 291 292 297 302 306 312 316 317 317 316 313 310 307 305 303 298 293 293 295
314 304 301 298 294 289 287 289 289 286 284 283 283 283 279 280 283 286 286 287 287 288 288 289 289 289 292 299 305 310 313 314 316 315 312 308 305 305 299 292 291 293 297
314 311 304 298 289 285 286 290 296 292 283 281 282 279 277 280 283 285 286 287 288 289 292 292 290 288 291 297 303 309 314 315 317 316 312 308 306 303 294 291 294 297 298
309 302 295 288 283 282 286 291 294 293 290 286 282 280 279 279 281 281 283 286 288 289 290 290 290 288 291 296 302 309 314 314 316 314 310 307 305 300 291 291 295 298 299
312 310 296 286 283 284 287 290 292 292 289 284 280 279 279 279 279 279 281 283 286 288 290 290 290 288 290 294 300 308 312 314 315 312 308 306 304 296 292 293 297 301 301
309 308 303 298 293 291 291 293 294 290 289 283 280 278 275 274 275 276 278 280 284 287 288 289 289 287 288 293 300 307 310 313 315 312 308 306 302 295 293 294 298 300 299
309 305 303 300 296 294 295 297 296 294 290 282 277 273 271 270 270 270 274 277 283 285 287 287 287 285 287 292 299 304 309 313 313 311 308 306 300 297 296 298 303 304 303
314 308 306 304 299 295 295 298 297 292 287 286 283 280 276 274 274 273 274 279 281 284 285 286 286 284 286 290 298 304 307 310 311 310 307 303 297 296 296 300 304 304 304
306 305 305 304 300 296 295 297 296 291 291 289 288 283 279 276 275 274 274 274 277 281 284 286 284 282 284 290 301 300 303 308 309 308 306 301 296 296 299 303 303 303 304
308 307 308 308 303 299 301 302 301 299 296 293 291 287 281 277 274 272 271 271 277 281 284 285 283 282 283 291 302 297 303 306 307 307 305 300 297 300 302 305 304 306 308
326 323 318 315 308 303 302 303 302 300 298 297 293 290 286 282 278 276 276 277 280 281 283 283 280 279 283 293 298 297 302 305 306 306 305 299 299 301 305 308 308 309 311
334 331 329 327 323 320 317 315 312 309 306 303 302 300 296 291 286 283 282 281 281 282 283 281 278 278 284 291 296 294 302 304 306 303 303 295 300 304 307 308 309 310 312
342 338 335 333 331 330 328 327 324 322 321 320 316 310 303 296 291 288 285 283 281 281 281 278 275 279 283 289 291 293 302 303 304 305 301 299 303 306 307 307 309 311 312